TIME,DELAY(SENSOR),PRES,OXYGEN,RAWTEMP,T(OPTODE),TCPHASE,FLUOR,BETA(BETA700),BETA(BETA412),BETA(BETA440),CDOM,C(CSC),ED(ED412.40),ED(ED444.00),ED(ED489.70),ED(ED554.30),LU(LU411.80),LU(LU443.40),LU(LU489.60),LU(LU554.10),COMP,TILTX,TILTY,CHECK
1344137601,5809,883.2999877929688000,44.5527381896972660,661.2255249023438000,4.5876178741455080,54.3375511169433600,53,100,88,80,82,15349,2147760905,2147422820,2148005723,2147875465,2147642486,2147058962,2148258331,2147199360,314,5,13,44392
1344141197,5806,965.7899780273438000,48.5782012939453100,667.2589111328125000,4.3887038230896000,53.8348999023437500,52,99,87,79,81,15352,2147760201,2147421851,2148005888,2147873819,2147643638,2147059264,2148255488,2147192914,540,5,13,2528
1344144797,5809,966.5100097656250000,49.6762619018554700,669.9937133789062000,4.2984070777893070,53.7164688110351560,52,100,89,79,81,15349,2147759524,2147422820,2148005348,2147873380,2147643995,2147063515,2148257865,2147197577,1012,4,13,57802
1344148397,5811,999.2199707031250000,50.9609603881835940,674.9359130859375000,4.1350078582763670,53.6007995605468750,52,101,89,79,82,15346,2147761051,2147419547,2148006720,2147873142,2147645284,2147057956,2148259163,2147198829,3213,4,13,64256
1344151997,5811,1013.7199707031250000,50.4118118286132800,674.7827758789062000,4.1400737762451170,53.6764297485351560,51,98,88,79,82,15345,2147761481,2147421440,2148005595,2147874971,2147645211,2147059227,2148262601,2147197348,3418,4,13,62118
1344155597,5809,1017.8400268554688000,50.2549514770507800,674.3363037109375000,4.1548461914062500,53.6859703063964840,53,98,87,80,82,15352,2147760621,2147418752,2148005531,2147873755,2147644297,2147059510,2148259492,2147199734,512,5,13,50976
1344159197,5811,1016.6799926757812000,50.6112518310546900,674.0498046875000000,4.1643238067626950,53.6348114013671900,53,105,87,78,81,15353,2147761481,2147421120,2148006354,2147873956,2147645010,2147061686,2148258340,2147201974,216,5,13,27
1344162797,5810,1020.0599975585938000,50.4789199829101560,674.2512817382812000,4.1576600074768070,53.6604118347168000,52,98,88,79,81,15347,2147762852,2147421138,2148007186,2147875666,2147645842,2147057755,2148258093,2147199405,34,5,13,19669
1344166397,5809,1015.8099975585938000,50.1418609619140600,674.7471923828125000,4.1412529945373535,53.7127990722656250,52,101,88,78,81,15349,2147759670,2147422784,2148005741,2147875574,2147644598,2147060900,2148262052,2147200201,193,4,13,59173
1344169997,5804,1013.6099853515625000,49.7131004333496100,676.3295288085938000,4.0888838768005370,53.7927894592285160,52,101,86,79,80,15346,2147760777,2147418148,2148006509,2147871341,2147644004,2147056475,2148262354,2147200201,258,5,13,35676
1344173597,5808,1018.1400146484375000,48.8371315002441400,676.3073730468750000,4.0896129608154300,53.9119987487793000,53,98,91,80,82,15348,2147759396,2147418176,2148005248,2147874093,2147642002,2147058998,2148258157,2147198875,265,5,13,29970
1344177197,5806,1021.1400146484375000,49.3819999694824200,675.9406127929688000,4.1017589569091800,53.8335113525390600,53,98,91,78,82,15338,2147762066,2147418944,2148006957,2147874715,2147642880,2147065645,2148260388,2147197284,589,5,13,21499
1344180797,5805,1013.4400024414062000,49.1362609863281250,676.3980712890625000,4.0866131782531740,53.8667716979980500,54,97,88,80,83,15341,2147758006,2147421888,2148009106,2147875282,2147644973,2147056694,2148264082,2147200320,3385,5,13,18783
1344184397,5810,1025.5300292968750000,48.8714981079101560,676.1787719726562000,4.0938701629638670,53.9031982421875000,52,97,86,79,83,15339,2147758134,2147421970,2148007158,2147875291,2147644644,2147057289,2148261083,2147197696,417,5,13,52393
1344187997,5809,1022.2700195312500000,49.5873489379882800,674.4127807617188000,4.1523170471191410,53.7844085693359400,53,99,87,80,83,15338,2147762825,2147421677,2148006893,2147874468,2147642331,2147062473,2148257764,2147196525,120,5,13,42401
1344191597,5809,1023.0499877929688000,49.8328895568847660,675.9816284179688000,4.1003971099853520,53.7698516845703100,53,98,89,78,82,15336,2147759844,2147421750,2148006025,2147875154,2147645531,2147060434,2148260324,2147199378,330,5,13,26088
1344195197,5807,1026.0899658203125000,50.4100112915039060,675.3762207031250000,4.1204361915588380,53.6805801391601560,52,97,89,78,82,15337,2147760502,2147421229,2148003949,2147873517,2147642112,2147064685,2148262043,2147195949,225,5,13,31408
1344198797,5808,1027.2900390625000000,49.3524818420410160,674.9973144531250000,4.1329770088195800,53.8217697143554700,53,98,86,79,82,15335,2147760228,2147422116,2148007003,2147875666,2147642934,2147064274,2148261449,2147199314,3576,4,13,31069
1344202397,5811,1025.0200195312500000,49.8087387084960940,675.1154785156250000,4.1290650367736820,53.7583885192871100,53,99,89,78,83,15336,2147761325,2147420452,2148008978,2147871122,2147641417,2147060361,2148258852,2147198454,244,5,13,15942
1344205997,5809,1021.5900268554688000,48.7830505371093750,676.5770263671875000,4.0806879997253420,53.9177513122558600,53,99,84,79,82,15334,2147761024,2147419794,2148010898,2147875062,2147646454,2147054765,2148263670,2147197275,21,5,13,52472
1344209597,5810,1015.1900024414062000,49.3330116271972660,677.7717285156250000,4.0411257743835450,53.8590507507324200,53,99,88,79,83,15340,2147759908,2147421202,2148007515,2147875958,2147643730,2147062144,2148257563,2147196699,255,5,13,19132
1344213197,5809,1019.6900024414062000,49.9175605773925800,677.7352905273438000,4.0423321723937990,53.7822990417480500,52,98,88,80,82,15334,2147764397,2147417609,2148007259,2147872027,2147643986,2147060498,2148257170,2147196169,313,5,13,23794
1344216797,5811,1031.8100585937500000,49.0204315185546900,676.2487182617188000,4.0915579795837400,53.8870086669921900,52,103,89,79,82,15334,2147761517,2147419446,2148009654,2147875611,2147641289,2147063021,2148261046,2147198921,3339,4,13,55782
1344220397,5808,1029.9100341796875000,48.6917304992675800,674.6607055664062000,4.1441140174865720,53.9123497009277340,52,97,93,79,81,15332,2147761892,2147418669,2148006939,2147873636,2147646400,2147066752,2148257389,2147197586,392,5,13,27437
1344223997,5811,1022.5599975585938000,48.6104316711425800,676.5933227539062000,4.0801491737365720,53.9457893371582000,52,99,88,79,81,15335,2147762560,2147420187,2148005869,2147876105,2147644745,2147059565,2148264740,2147200009,69,5,13,25847
1344227597,5807,1018.6699829101562000,48.6184692382812500,676.9487304687500000,4.0683817863464355,53.9483909606933600,52,97,88,80,83,15335,2147759305,2147421540,2148006994,2147873426,2147646866,2147057545,2148264137,2147198235,3516,5,13,38518
1344231197,5808,1026.4300537109375000,48.5138206481933600,676.7648925781250000,4.0744690895080570,53.9582595825195300,52,99,91,80,82,15333,2147762185,2147421522,2148009042,2147875693,2147645558,2147062098,2148259382,2147193709,199,5,13,57086
1344234797,5808,1026.5300292968750000,48.2036018371582000,676.6259155273438000,4.0790691375732420,53.9997711181640600,52,98,90,79,82,15335,2147762953,2147419401,2148005979,2147876214,2147646299,2147058907,2148259648,2147198180,47,5,13,23928
1344238397,5808,1035.6700439453125000,49.4161491394043000,675.5294189453125000,4.1153678894042970,53.8193702697753900,52,97,87,80,82,15331,2147761965,2147421120,2148006546,2147875373,2147641782,2147061056,2148258953,2147199350,3008,5,13,43600
1344241997,5809,1034.3900146484375000,49.7154617309570300,675.4180908203125000,4.1190509796142580,53.7798194885253900,52,99,92,80,81,15333,2147763026,2147417462,2148006006,2147875574,2147641865,2147059090,2148258806,2147201892,736,5,13,2740
1344245597,5809,1027.7399902343750000,48.8758392333984400,676.3729248046875000,4.0874462127685550,53.9048309326171900,53,101,85,79,82,15334,2147760237,2147421248,2148006189,2147876516,2147643684,2147061961,2148261805,2147196068,366,5,13,11487
1344249197,5807,1028.5300292968750000,49.1631507873535160,675.9127807617188000,4.1026759147644040,53.8590698242187500,53,97,88,80,82,15334,2147760694,2147418761,2148008475,2147872374,2147642194,2147060160,2148256694,2147198436,189,5,13,33362
1344252797,5810,1025.8100585937500000,48.2715797424316400,676.6455078125000000,4.0784192085266110,53.9952888488769500,53,98,88,79,82,15332,2147762038,2147417764,2148004434,2147877056,2147645595,2147062710,2148261540,2147200960,50,5,13,59547
1344256397,5809,1033.2700195312500000,49.3446311950683600,676.8093872070312000,4.0729918479919430,53.8468818664550800,52,99,91,79,83,15331,2147760484,2147421220,2148003136,2147876278,2147645641,2147057700,2148258368,2147195849,3476,4,13,29744
1344259997,5809,1030.6500244140625000,48.8871002197265600,676.1641235351562000,4.0943579673767090,53.9035911560058600,53,100,88,79,83,15332,2147760374,2147420544,2148006080,2147873600,2147642660,2147063862,2148257709,2147195757,3434,4,13,911
1344263597,5806,1033.4499511718750000,50.0487709045410160,674.9348144531250000,4.1350440979003910,53.7264289855957000,53,100,88,79,81,15329,2147762998,2147418313,2148003730,2147871734,2147646418,2147061266,2148260461,2147198217,529,4,13,5337
1344267197,5808,1024.7099609375000000,49.7600593566894500,674.9379882812500000,4.1349349021911620,53.7684707641601560,52,101,86,78,81,15331,2147761280,2147420900,2148005248,2147873417,2147644150,2147060973,2148266038,2147196480,215,5,13,56018
1344270797,5811,1023.0000000000000000,49.2483482360839840,675.2849731445312000,4.1234569549560550,53.8425903320312500,52,100,87,80,81,15333,2147762825,2147418139,2148008557,2147872493,2147641362,2147059126,2148256164,2147200073,100,5,13,17104
1344274397,5809,1018.8300170898438000,48.9164009094238300,676.3485717773438000,4.0882511138916020,53.8977088928222660,53,102,88,80,82,15331,2147760420,2147420489,2148007332,2147874093,2147645101,2147059465,2148261257,2147198838,3399,5,13,46533
1344277997,5807,1024.4100341796875000,48.3436203002929700,676.3862304687500000,4.0870041847229000,53.9800910949707000,53,97,85,78,82,15329,2147761389,2147421001,2148008786,2147874331,2147644352,2147064768,2148263625,2147193444,157,5,13,58750
1344281597,5810,1024.6999511718750000,48.8560714721679700,676.1323242187500000,4.0954089164733890,53.9027481079101560,53,101,91,78,82,15328,2147762459,2147418386,2148005321,2147875337,2147643803,2147059702,2148260900,2147198070,165,5,13,15257
1344282654,5810,1023.0399780273438000,48.5965309143066400,676.3114013671875000,4.0894808769226070,53.9435386657714840,52,100,86,80,81,15357,2147762870,2147422784,2148006619,2147874413,2147643885,2147064310,2148260955,2147196470,3577,4,13,60434
